Simultaneous Nadir Overpasses (SNOs) Predictions

Prediction of SNOs between AQUA and METOP-A Satellite Orbit:

Table of predicted SNOs for the next 14.0 days since TLE Epoch: 1/2/2021
Index Date (AQUA) Time (AQUA) Lat,Lon (AQUA) SZA (AQUA ) Date (METOP-A) Time (METOP-A) Lat,Lon (METOP-A) SZA (METOP-A ) Distance(km) Time Diff (sec)
1 01/04/2021 13:03:28 76.92, -30.19 99.96 01/04/2021 13:02:39 76.90, -30.19 99.95 2.77 49
2 01/04/2021 13:52:54 -76.93, 137.43 80.04 01/04/2021 13:53:20 -76.93, 137.27 80.04 4.14 26
3 01/07/2021 08:37:43 76.93, 36.24 99.64 01/07/2021 08:37:01 76.93, 36.29 99.66 1.55 42
4 01/07/2021 09:27:10 -76.98,-156.30 80.31 01/07/2021 09:27:42 -76.97,-156.24 80.32 1.50 32
5 01/10/2021 04:11:58 76.94, 102.63 99.28 01/10/2021 04:11:24 76.92, 102.59 99.28 2.14 34
6 01/10/2021 05:01:25 -76.98, -89.88 80.68 01/10/2021 05:02:05 -76.96, -89.93 80.70 2.39 40
7 01/12/2021 23:46:12 76.96, 169.00 98.87 01/12/2021 23:45:45 76.96, 169.06 98.87 1.55 27
8 01/13/2021 00:35:39 -76.99, -23.49 81.10 01/13/2021 00:36:26 -77.00, -23.45 81.11 0.99 47
9 01/15/2021 19:20:26 76.94,-124.48 98.36 01/15/2021 19:20:08 76.94,-124.65 98.38 4.29 18



Historial Predications of SNOs between AQUA and METOP-A
